Weather History for Monticello, KY

Change the Weather History Date:

Sunday, January 12, 2014

  Actual Average Record
Temperature  
Mean Temperature 41 °F -  
Max Temperature 54 °F 41 °F 70 °F (1960)
Min Temperature 28 °F 20 °F -5 °F (1981)
Degree Days  
Heating Degree Days 24    
Moisture  
Dew Point 32 °F    
Average Humidity 71    
Maximum Humidity 100    
Minimum Humidity 39    
Precipitation  
Precipitation 0.00 in - - ()
Sea Level Pressure  
Sea Level Pressure 30.09 in    
Wind  
Wind Speed 5 mph (SSW)    
Max Wind Speed 14 mph    
Max Gust Speed 18 mph    
Visibility 9 miles    
Events      
Averages and records for this station are not official NWS values.
T = Trace of Precipitation, MM = Missing Value Source: NWS Daily Summary

Daily Weather History Graph

Daily Weather History Graph

Search for Another Location

Airport:

Trip Planner

Search our weather history database for the weather conditions in past years. The results will help you decide how hot, cold, wet, or windy it might be!

Date:

Astronomy

Jan. 12, 2014 Rise Set
Actual Time 6:52 AM CST 4:43 PM CST
Civil Twilight 6:23 AM CST 5:12 PM CST
Nautical Twilight 5:51 AM CST 5:44 PM CST
Astronomical Twilight 5:20 AM CST 6:15 PM CST
Moon 2:10 PM CST (1/12) 3:50 AM CST (1/12)
Length of Visible Light 10h 48m
Length of Day
9h 51m
Waxing Gibbous, 90% of the Moon is Illuminated
Jan 12
Waxing Gibbous
Jan 15
Full
Jan 23
Last Quarter
Jan 30
New
Feb 6
First Quarter

Hourly Weather History & Observations

Time (CST) Temp. Windchill Dew Point Humidity Pressure Visibility Wind Dir Wind Speed Gust Speed Precip Events Conditions
12:56 AM 37.9 °F 33.5 °F 34.9 °F 89% 29.97 in 10.0 mi SW 5.8 mph - N/A   Mostly Cloudy
1:56 AM 38.8 °F 33.2 °F 34.0 °F 83% 30.00 in 10.0 mi WSW 8.1 mph - N/A   Clear
2:56 AM 37.9 °F 32.1 °F 34.0 °F 86% 30.02 in 10.0 mi WSW 8.1 mph - N/A   Clear
3:56 AM 36.0 °F 31.1 °F 32.9 °F 89% 30.03 in 10.0 mi WSW 5.8 mph - N/A   Clear
4:56 AM 31.1 °F - 29.1 °F 92% 30.05 in 9.0 mi Calm Calm - N/A   Clear
5:56 AM 28.0 °F - 28.0 °F 100% 30.09 in 7.0 mi Calm Calm - N/A   Clear
6:56 AM 30.0 °F - 29.1 °F 96% 30.12 in 3.0 mi Calm Calm - N/A   Clear
7:56 AM 32.0 °F - 30.0 °F 92% 30.14 in 5.0 mi Calm Calm - N/A   Clear
8:56 AM 41.0 °F 35.8 °F 36.0 °F 82% 30.18 in 10.0 mi SSW 8.1 mph - N/A   Clear
9:56 AM 43.9 °F 39.9 °F 34.9 °F 71% 30.19 in 10.0 mi Variable 6.9 mph - N/A   Clear
10:56 AM 45.9 °F 42.9 °F 32.9 °F 61% 30.15 in 10.0 mi WSW 5.8 mph - N/A   Clear
11:56 AM 48.9 °F - 34.0 °F 56% 30.13 in 10.0 mi SSW 9.2 mph - N/A   Clear
12:56 PM 50.9 °F - 34.0 °F 52% 30.11 in 10.0 mi WSW 10.4 mph - N/A   Clear
1:56 PM 52.9 °F - 32.0 °F 45% 30.10 in 10.0 mi SSW 6.9 mph - N/A   Clear
2:56 PM 54.0 °F - 29.1 °F 39% 30.10 in 10.0 mi SSW 6.9 mph - N/A   Clear
3:56 PM 52.9 °F - 30.0 °F 42% 30.09 in 10.0 mi SW 4.6 mph - N/A   Clear
4:56 PM 41.0 °F - 32.0 °F 70% 30.11 in 10.0 mi Calm Calm - N/A   Clear
5:56 PM 36.0 °F - 30.0 °F 79% 30.13 in 10.0 mi Calm Calm - N/A   Clear
6:56 PM 36.9 °F 32.2 °F 30.0 °F 76% 30.11 in 10.0 mi South 5.8 mph - N/A   Clear
7:56 PM 43.9 °F 39.9 °F 32.9 °F 65% 30.10 in 10.0 mi South 6.9 mph - N/A   Clear
8:56 PM 45.0 °F 43.5 °F 32.0 °F 60% 30.10 in 10.0 mi South 3.5 mph - N/A   Clear
9:56 PM 46.9 °F - 32.9 °F 58% 30.07 in 10.0 mi South 9.2 mph - N/A   Clear
10:56 PM 45.0 °F 41.8 °F 32.0 °F 60% 30.07 in 10.0 mi SSW 5.8 mph - N/A   Clear
11:56 PM 48.9 °F - 31.1 °F 50% 30.05 in 10.0 mi South 13.8 mph 18.4 mph N/A   Clear